Hourly Data Report for October 02, 2020

MUSKOKA
ONTARIO
Current Station Operator: NAVCAN

44°58'29.000" N
79°18'12.000" W
281.90 m
6115529
71532
YQA

Download Data

Hourly Data (October 2020)
Hourly Data Report for October 2, 2020
TIME Temp Definition
°C
Dew Point Definition
°C
Rel Hum Definition
%
Wind Dir Definition
10's deg

Wind Spd Definition
km/h
Visibility Definition
km
Stn Press Definition
kPa
Hmdx Definition


Wind Chill Definition


Weather Definition


00:00 7.7 7.3 97 LegendMM 4 16.1 97.98     Rain
01:00 7.6 7.2 97 4 5 16.1 97.97     LegendNANA
02:00 7.8 7.2 96 1 5 16.1 97.95     LegendNANA
03:00 7.6 6.9 95 1 5 16.1 97.95     LegendNANA
04:00 7.1 6.2 94 2 8 16.1 97.93     LegendNANA
05:00 7.1 6.2 94 LegendMM 5 16.1 97.96     LegendNANA
06:00 7.1 6.2 94 33 5 16.1 98.00     LegendNANA
07:00 7.0 6.3 95 34 5 16.1 98.06     LegendNANA
08:00 7.1 5.9 92 33 11 16.1 98.11     LegendNANA
09:00 7.2 6.4 95 35 8 14.5 98.16     Rain
10:00 7.9 7.2 96 34 8 16.1 98.19     Rain
11:00 8.6 7.1 90 35 8 16.1 98.23     Rain
12:00 9.1 7.0 86 32 11 16.1 98.25     LegendNANA
13:00 9.8 6.0 77 29 11 16.1 98.26     LegendNANA
14:00 11.4 4.5 63 28 13 16.1 98.23     LegendNANA
15:00 11.1 4.5 64 31 13 16.1 98.25     LegendNANA
16:00 10.8 3.3 60 29 13 16.1 98.29     LegendNANA
17:00 9.8 3.8 66 31 15 16.1 98.31     LegendNANA
18:00 8.5 3.9 73 32 13 16.1 98.39     LegendNANA
19:00 6.8 4.1 83 31 13 16.1 98.47     LegendNANA
20:00 5.5 3.9 89 32 9 16.1 98.53     LegendNANA
21:00 3.5 3.1 97 LegendMM 4 16.1 98.57     LegendNANA
22:00 2.5 2.2 98   0 16.1 98.62     LegendNANA
23:00 3.3 3.0 98 2 5 16.1 98.63     LegendNANA

Notes on Data Quality.

Legend

  • E = Estimated
  • M = Missing
  • NA = Not Available*
  • [empty] = Indicates an unobserved value
Date modified: